STARLINK-5089 (56148 NORAD) Tracking and Keplerian Element Data

This shows tracking and keplerian element data for the satellite.

Feedback or suggestion? Click here.




ElementValue
Catalog56148
NameSTARLINK-5089
Epoch Orbit656
Epoch Day127.09916633
Epoch Year2023
RAAN33.1339
Inclination43.0008
Eccentricity0.0001776
Argument of Perigee261.8234
Mean Anonmoly98.2432
Mean Motion15.71340885
Decay Rate-5.467E-05
L11 56148U 23046BJ 23127.09916633 -.00005467 00000+0 -38291-4 0 9991
L22 56148 43.0008 33.1339 0001776 261.8234 98.2432 15.71340885 6567



Live tracking and technical data element details for STARLINK-5089 (NORAD 56148). STARLINK-5089 can be tracked NOW for your location showing map with azimuth and elevation plus other details from your city location.







IsCatalogInMostPopularTable: catalog: 56148, numindb: 16
Update: records affected: 1



GetName: 56148 STARLINK-5089

Hit Count: updated at: Sun, 04 Jun 2023 23:00:32 GMT